軌道要素
Epoch 2014 Mar. 4.0 TT = JDT 2456720.5
T 2014 Mar. 8.16932 TT MPCW
q 1.4156352 (2000.0) P Q
n 0.15143971 Peri. 1.32323 -0.48745906 -0.87013587
a 3.4858567 Node 117.85499 +0.80034118 -0.47843864
e 0.5938917 Incl. 4.69956 +0.34905253 -0.11815261
P 6.51
From 92 observations 2013 Nov. 9-2014 Mar. 3, mean residual 0".5.
|